Погода в Утене

Погода в Утене : погода сейчас, прогноз погоды и архив. Всё, что Вы хотите узнать о погоде в Утене!

Поиск расширенной информации на нашем сайте:

Полезная информация: ветошь Спб

Другие новости

Новости СМИ2

Главная страница сайта

Новости сайта

03.07.2017

Напоминаем, что на нашем специализированном сайте Метеоцентр.Азия вы можете получить высокодетализированные автоматические прогнозы погоды по пунктам России, СНГ и мира в авиационном формате (включающие направление и скорость ветра, видимость, явления погоды, количество и форму облачности, нижнюю и верхнюю границу облачности).

Рекомендуем: Дождались! Китайская мазь от геморроя теперь в Украине!

Погода в Утене - сегодня

Время (UTC), дата Ветер
(°,м/с) 
Видим.   Явления Облачность Т
(°С)
Тd
(°С)
f(%) Тe
(°С)
Pmin
(гПа)
dP
(гПа)
Po
(мм)
O2
(г/м3)
Тmin Tmax R s Состояние
почвы
09 18.07.17 250 (З) 4-8{08}  20000 м    8/4 1000 м средняя, верхняя 
[Cu med, cong|Ac und|Ci sp]
+17.8 +10.7 63 +20  1017  -0.3  753  283           
12 18.07.17 310 (СЗ) 1-3{11}  16000 м  слаб. ливневой дождь  9/8 600 м кучево-дожд., средняя 
[Cb cap|Ac cuf]
+15.5 +12.4 82 +21  1017.8  0.6  754  285      0.6     
15 18.07.17 260 (З) 2-5{05}  20000 м  в посл. час ливневой дождь  8/4 600 м средняя, верхняя 
[Cu med, cong|Ac und|Ci sp]
+17.9 +14.4 80 +27  1016.6  -1  753  282           
18 18.07.17 270 (З) 3-5{09}  20000 м  {ливн. осадки}  6/4 600 м средняя 
[Cu med, cong|Ac und]
+16.6 +9.9 65 +18  1017.6  0.9  754  285    +19     
21 18.07.17 тихо () -2{05}  20000 м    8/8 600 м 
[Sc]
+13.1 +10.2 83 +14  1018.2  0.4  754  288           
00 19.07.17 тихо () -2{03}  20000 м    3/3 600 м 
[Sc]
+11.6 +9.8 89 +12  1019  0.7  755  290           
03 19.07.17 тихо () -3{03}  0900 м  туман  ?/?  
+10.9 +10.3 96 +12  1019.4  0.4  755  291           
06 19.07.17 230 (ЮЗ) 1-3{04}  19000 м  {туман}  9/9 300 м 
[St]
+13.4 +11.9 91 +19  1019.7  0.4  755  288  +9.2        влажная 
09 19.07.17 260 (З) 2-4{07}  20000 м    8/5 1000 м верхняя 
[Cu med, cong|Ci sp]
+17.5 +11 66 +20  1019.6  0.1  755  284           
12 19.07.17 270 (З) 1-5{05}  20000 м    5/4 1000 м верхняя 
[Cu med, cong|Ci sp]
+19.5 +9 51 +21  1018.5  -1  755  282           
15 19.07.17 270 (З) 3-5{06}  20000 м    4/3 1000 м верхняя 
[Cu med, cong|Ci sp]
+21.1 +9 46 +21  1017  -1.4  753  280           
18 19.07.17 тихо () -1{05}  20000 м    8/3 600 м средняя, верхняя 
[Cu med, cong|Ac und|Ci sp]
+18 +11.4 65 +21  1016.7  -0.4  753  283    +21.3       
21 19.07.17 тихо () -0{01}  20000 м    8/5 600 м средняя 
[Sc|Ac und]
+14.5 +12.3 87 +19  1016.7  -0.2  753  286           
00 20.07.17 тихо () -0{00}  15000 м    3/3 600 м верхняя 
[Sc|Ci sp]
+11.4 +10.3 93 +13  1016.2  -0.6  753  289           
03 20.07.17 тихо () -0{00}  15000 м    8/5 600 м верхняя 
[Cu med, cong|Ci sp]
+10.5 +9.7 95 +11  1015.6  -0.6  752  290           
06 20.07.17 тихо () -1{02}  19000 м    8/5 600 м средняя, верхняя 
[Cu med, cong|Ac und|Ci sp]
+14.6 +12.8 89 +20  1015.3  -0.1  752  285  +10        влажная 
09 20.07.17 310 (СЗ) 2-4{05}  20000 м    8/5 1000 м средняя, верхняя 
[Cu med, cong|Ac und|Ci sp]
+18.6 +12.7 69 +25  1014.4  -0.8  751  281           
12 20.07.17 300 (СЗ) 3-4{06}  20000 м    6/4 1000 м средняя, верхняя 
[Cu med, cong|Ac und|Ci sp]
+20.7 +11.3 55 +24  1013.4  -0.9  751  279           
15 20.07.17 320 (СЗ) 3-6{07}  20000 м    5/4 1000 м верхняя 
[Cu med, cong|Ci sp]
+20.3 +8.5 47 +20  1013.3  -0.1  751  280           
18 20.07.17 тихо () -2{07}  20000 м    3/3 1000 м средняя 
[Cu med, cong|Ac und]
+18.2 +7.8 51 +18  1013.6  0.2  751  282    +21.3       
21 20.07.17 тихо () -0{03}  19000 м    ясно 
+10.5 +8.9 90 +11  1014.8  0.9  752  290           
00 21.07.17 тихо () -0{01}  19000 м    ясно 
+8.4 +7.6 95 +8  1015.5  0.5  752  293           
03 21.07.17 тихо () -0{01}  4000 м  туман поземный  4/3 300 м средняя, верхняя 
[St|Ac und|Ci sp]
+7.1 +6.4 95 +7  1015.4  -0.1  752  294           
06 21.07.17 тихо () -2{02}  20000 м  {туман}  4/3 600 м верхняя 
[Cu med, cong|Ci sp]
+14.8 +11.4 80 +18  1016  753  285  +6.8        влажная 
09 21.07.17 060 (СВ) 1-3{06}  20000 м    8/5 1000 м верхняя 
[Cu med, cong|Ci sp]
+19 +10 56 +22  1016.3  0.5  753  282           
Время (UTC), дата Ветер
(°,м/с) 
Видим.   Явления Облачность Т
(°С)
Тd
(°С)
f(%) Тe
(°С)
Pmin
(гПа)
dP
(гПа)
Po
(мм)
O2
(г/м3)
Тmin Tmax R s Состояние
почвы

Для получения пояснительной информации подведите курсор к названию столбца.

ПОГОДА в Утене - архив

Всё, что Вы хотите узнать о погоде в Утене - удобно и подробно!

Выберите нужную дату (начиная с 1 января 2015* года) и нажмите кнопку "Найти".
Будут отображены архивные сводки погоды по пункту Утена, начиная с указанной даты.


Отображать данные в формате CSV (для использования в таблицах Excel)


Внимание! Наш архив погоды предназначен исключительно для личного некоммерческого использования в познавательных целях. Если Вам необходимы официальные справки о состоянии погоды (для производственных, юридических, коммерческих и т.п. целей), обращайтесь в органы Росгидромета.

*Примечание: данная дата относится к архиву по метеостанциям СССР (Россия, СНГ, Балтия).
Архив по метеостанциям Зарубежной Европы и Азии (кроме Китая) хранится 10 дней, по другим регионам земного шара (Китай, Африка, Америка, Австралия, Океания) - 1 день.

Утена - район местоположения метеостанции


Название, широта, долгота, высота метеостанции:
Утена 55.5°ш. 25.6°д. 106 м над ур. моря [Литва]

Дополнительная информация

В oтличие oт бoльшинства пoгoдных сайтoв мы публикуем пoдрoбную метеoинфoрмацию в детальнoм прoфессиoнальнoм фoрмате.

Характеристики температуры и влажнoсти вoздуха измеряются на высoте 2 м в тени вдали oт зданий и деревьев.
Скoрoсть ветра измеряется на высoте 10 м (на урoвне рoста челoвека скoрoсть ветра ниже в 1.5-2 раза). Если метеoстанция нахoдится в гoрoде или в лесу, тo скoрoсть ветра занижена на 2-4 м/с пo сравнению с oткрытым местoм. Скoрoсть ветра над акватoриями крупных рек и oзёр, а также на вершинах хoлмoв на 2-5 м/с выше, чем в oбычных услoвиях.
Атмoсфернoе давление в разных тoчках местнoсти мoжет значительнo oтличаться oт давления на метеoстанции, в зависимoсти oт услoвий рельефа (при пoдъёме на 10 м давление пoнижается примернo на 1 мм рт.ст.).